START_TIME,STEP,MOV.,A46,t_acc.,A13,t_acc.,M47,t_acc.,A17,t_acc.,A28,t_acc.,M38,t_acc.
1979-02-28 09:00:14.940 ,6,0,,0,0.,4.8,0.,4.8,,0,0.,4.8,0.,4.8
1979-02-28 09:00:19.740 ,6,0,,0,0.,4.8,0.,4.8,,0,0.,4.8,0.,4.8
1979-02-28 09:00:24.540 ,6,0,,0,1.,4.8,0.,4.8,,0,0.,4.8,0.,4.8
1979-02-28 09:00:29.340 ,6,0,,0,0.,4.8,0.,4.8,,0,0.,4.8,0.,4.8
1979-02-28 09:00:34.140 ,6,0,,0,0.,4.8,0.,4.8,,0,0.,4.8,0.,4.8
1979-02-28 09:00:38.940 ,5,0,,0,0.,4.8,0.,4.8,,0,0.,4.8,0.,4.8
1979-02-28 09:00:43.740 ,5,0,,0,0.,4.8,0.,4.8,,0,0.,4.8,0.,4.8
1979-02-28 09:00:48.540 ,5,0,,0,0.,4.8,0.,4.8,,0,0.,4.8,0.,4.8
1979-02-28 09:00:53.340 ,5,0,,0,0.,4.8,0.,4.8,,0,0.,4.8,0.,4.8
1979-02-28 09:00:58.140 ,5,0,,0,0.,4.8,0.,4.8,,0,0.,4.8,0.,4.8
1979-02-28 09:01:02.940 ,4,0,,0,0.,4.8,0.,4.8,,0,0.,4.8,0.,4.8
1979-02-28 09:01:07.740 ,4,0,,0,0.,4.8,0.,4.8,,0,0.,4.8,0.,4.8
1979-02-28 09:01:12.540 ,4,0,,0,0.,4.8,0.,4.8,,0,0.,4.8,0.,4.8
1979-02-28 09:01:17.340 ,4,0,,0,0.,4.8,0.,4.8,,0,0.,4.8,0.,4.8
1979-02-28 09:01:22.140 ,4,0,,0,0.,4.8,0.,4.8,,0,0.,4.8,0.,4.8
1979-02-28 09:01:26.940 ,3,0,,0,0.,4.8,0.,4.8,,0,0.,4.8,1.,4.8
1979-02-28 09:01:31.740 ,3,0,,0,0.,4.8,0.,4.8,,0,0.,4.8,0.,4.8
1979-02-28 09:01:36.540 ,3,0,,0,0.,4.8,0.,4.8,,0,1.,4.8,0.,4.8
1979-02-28 09:01:41.340 ,3,0,,0,0.,4.8,0.,4.8,,0,0.,4.8,0.,4.8
1979-02-28 09:01:46.140 ,3,0,,0,0.,4.8,0.,4.8,,0,0.,4.8,0.,4.8
1979-02-28 09:01:50.940 ,2,0,,0,0.,4.8,0.,4.8,,0,0.,4.8,0.,4.8
1979-02-28 09:01:55.740 ,2,0,,0,0.,4.8,0.,4.8,,0,0.,4.8,0.,4.8
1979-02-28 09:02:00.540 ,2,0,,0,0.,4.8,0.,4.8,,0,0.,4.8,0.,4.8
1979-02-28 09:02:05.340 ,2,0,,0,0.,4.8,0.,4.8,,0,0.,4.8,0.,4.8
1979-02-28 09:02:10.140 ,2,0,,0,0.,4.8,0.,4.8,,0,0.,4.8,0.,4.8
1979-02-28 09:02:14.940 ,1,0,,0,0.,4.8,0.,4.8,,0,0.,4.8,0.,4.8
1979-02-28 09:02:19.740 ,1,0,,0,0.,4.8,0.,4.8,,0,0.,4.8,0.,4.8
1979-02-28 09:02:24.540 ,1,0,,0,0.,4.8,0.,4.8,,0,0.,4.8,0.,4.8
1979-02-28 09:02:29.340 ,1,0,,0,0.,4.8,0.,4.8,,0,0.,4.8,0.,4.8
1979-02-28 09:02:34.140 ,1,0,,0,0.,4.8,0.,4.8,,0,0.,4.8,0.,4.8
1979-02-28 09:02:38.940 ,0,0,,0,0.,4.8,0.,4.8,,0,0.,4.8,0.,4.8
1979-02-28 09:02:43.740 ,0,0,,0,0.,4.8,0.,4.8,,0,0.,4.8,0.,4.8
1979-02-28 09:02:48.540 ,0,0,,0,0.,4.8,0.,4.8,,0,0.,4.8,0.,4.8
1979-02-28 09:02:53.340 ,0,0,,0,0.,4.8,0.,4.8,,0,0.,4.8,1.,4.8
1979-02-28 09:02:58.140 ,0,0,,0,0.,4.8,0.,4.8,,0,0.,4.8,0.,4.8
1979-02-28 09:03:02.940 ,0,0,,0,0.,4.8,0.,4.8,,0,0.,4.8,0.,4.8
1979-02-28 09:03:07.740 ,0,0,,0,0.,4.8,0.,4.8,,0,0.,4.8,0.,4.8
1979-02-28 09:03:12.540 ,0,0,,0,0.,4.8,0.,4.8,,0,0.,4.8,0.,4.8
1979-02-28 09:03:17.340 ,0,0,,0,0.,4.8,0.,4.8,,0,0.,4.8,0.,4.8
1979-02-28 09:03:22.140 ,0,0,,0,0.,4.8,0.,4.8,,0,0.,4.8,0.,4.8
1979-02-28 09:03:26.940 ,1,0,,0,0.,4.8,0.,4.8,,0,0.,4.8,0.,4.8
1979-02-28 09:03:31.740 ,1,0,,0,0.,4.8,0.,4.8,,0,0.,4.8,0.,4.8
1979-02-28 09:03:36.540 ,1,0,,0,0.,4.8,0.,4.8,,0,1.,4.8,0.,4.8
1979-02-28 09:03:41.340 ,1,0,,0,0.,4.8,0.,4.8,,0,0.,4.8,0.,4.8
1979-02-28 09:03:46.140 ,1,0,,0,0.,4.8,1.,4.8,,0,0.,4.8,0.,4.8
1979-02-28 09:03:50.940 ,2,0,,0,0.,4.8,0.,4.8,,0,0.,4.8,0.,4.8
1979-02-28 09:03:55.740 ,2,0,,0,0.,4.8,0.,4.8,,0,0.,4.8,0.,4.8
1979-02-28 09:04:00.540 ,2,0,,0,0.,4.8,0.,4.8,,0,0.,4.8,0.,4.8
1979-02-28 09:04:05.340 ,2,0,,0,0.,4.8,0.,4.8,,0,0.,4.8,0.,4.8
1979-02-28 09:04:10.140 ,2,0,,0,0.,4.8,0.,4.8,,0,0.,4.8,0.,4.8
1979-02-28 09:04:14.940 ,3,0,,0,0.,4.8,0.,4.8,,0,0.,4.8,0.,4.8
1979-02-28 09:04:19.740 ,3,0,,0,0.,4.8,0.,4.8,,0,0.,4.8,0.,4.8
1979-02-28 09:04:24.540 ,3,0,,0,0.,4.8,0.,4.8,,0,0.,4.8,0.,4.8
1979-02-28 09:04:29.340 ,3,0,,0,0.,4.8,0.,4.8,,0,0.,4.8,0.,4.8
1979-02-28 09:04:34.140 ,3,0,,0,0.,4.8,0.,4.8,,0,0.,4.8,0.,4.8
1979-02-28 09:04:38.940 ,4,0,,0,0.,4.8,0.,4.8,,0,0.,4.8,0.,4.8
1979-02-28 09:04:43.740 ,4,0,,0,0.,4.8,0.,4.8,,0,0.,4.8,0.,4.8
1979-02-28 09:04:48.540 ,4,0,,0,0.,4.8,0.,4.8,,0,0.,4.8,0.,4.8
1979-02-28 09:04:53.340 ,4,0,,0,0.,4.8,0.,4.8,,0,0.,4.8,0.,4.8
1979-02-28 09:04:58.140 ,4,0,,0,0.,4.8,0.,4.8,,0,0.,4.8,0.,4.8
1979-02-28 09:05:02.940 ,5,0,,0,0.,4.8,0.,4.8,,0,0.,4.8,0.,4.8
1979-02-28 09:05:07.740 ,5,0,,0,0.,4.8,0.,4.8,,0,0.,4.8,0.,4.8
1979-02-28 09:05:12.540 ,5,0,,0,0.,4.8,0.,4.8,,0,0.,4.8,0.,4.8
1979-02-28 09:05:17.340 ,5,0,,0,0.,4.8,0.,4.8,,0,0.,4.8,0.,4.8
1979-02-28 09:05:22.140 ,5,0,,0,0.,4.8,0.,4.8,,0,0.,4.8,0.,4.8
1979-02-28 09:05:26.940 ,6,0,,0,0.,4.8,0.,4.8,,0,0.,4.8,0.,4.8
1979-02-28 09:05:31.740 ,6,0,,0,0.,4.8,0.,4.8,,0,0.,4.8,0.,4.8
1979-02-28 09:05:36.540 ,6,0,,0,0.,4.8,0.,4.8,,0,0.,4.8,0.,4.8
1979-02-28 09:05:41.340 ,6,0,,0,0.,4.8,0.,4.8,,0,0.,4.8,0.,4.8
1979-02-28 09:05:46.140 ,6,0,,0,0.,4.8,0.,4.8,,0,0.,4.8,0.,4.8
1979-02-28 09:05:50.940 ,7,0,,0,0.,4.8,0.,4.8,,0,0.,4.8,0.,4.8
1979-02-28 09:05:55.740 ,7,0,,0,0.,4.8,0.,4.8,,0,0.,4.8,0.,4.8
1979-02-28 09:06:00.540 ,7,0,,0,0.,4.8,0.,4.8,,0,0.,4.8,0.,4.8
1979-02-28 09:06:05.340 ,7,0,,0,0.,4.8,0.,4.8,,0,0.,4.8,0.,4.8
1979-02-28 09:06:10.140 ,7,0,,0,0.,4.8,0.,4.8,,0,0.,4.8,0.,4.8
1979-02-28 09:06:14.940 ,7,0,,0,0.,4.8,0.,4.8,,0,0.,4.8,0.,4.8
1979-02-28 09:06:19.740 ,7,0,,0,0.,4.8,0.,4.8,,0,0.,4.8,0.,4.8
1979-02-28 09:06:24.540 ,7,0,,0,0.,4.8,0.,4.8,,0,1.,4.8,0.,4.8
1979-02-28 09:06:29.340 ,7,0,,0,0.,4.8,0.,4.8,,0,0.,4.8,0.,4.8
1979-02-28 09:06:34.140 ,7,0,,0,0.,4.8,0.,4.8,,0,0.,4.8,0.,4.8
1979-02-28 09:06:38.940 ,6,0,,0,0.,4.8,0.,4.8,,0,0.,4.8,0.,4.8
1979-02-28 09:06:43.740 ,6,0,,0,0.,4.8,0.,4.8,,0,0.,4.8,0.,4.8
1979-02-28 09:06:48.540 ,6,0,,0,0.,4.8,0.,4.8,,0,1.,4.8,0.,4.8
1979-02-28 09:06:53.340 ,6,0,,0,0.,4.8,0.,4.8,,0,0.,4.8,0.,4.8
1979-02-28 09:06:58.140 ,6,0,,0,0.,4.8,0.,4.8,,0,0.,4.8,0.,4.8
1979-02-28 09:07:02.940 ,5,0,,0,0.,4.8,0.,4.8,,0,0.,4.8,0.,4.8
1979-02-28 09:07:07.740 ,5,0,,0,0.,4.8,0.,4.8,,0,0.,4.8,0.,4.8
1979-02-28 09:07:12.540 ,5,0,,0,0.,4.8,0.,4.8,,0,0.,4.8,0.,4.8
1979-02-28 09:07:17.340 ,5,0,,0,0.,4.8,0.,4.8,,0,0.,4.8,0.,4.8
1979-02-28 09:07:22.140 ,5,0,,0,0.,4.8,0.,4.8,,0,0.,4.8,0.,4.8
1979-02-28 09:07:26.940 ,4,0,,0,0.,4.8,0.,4.8,,0,0.,4.8,0.,4.8
1979-02-28 09:07:31.740 ,4,0,,0,0.,4.8,0.,4.8,,0,0.,4.8,0.,4.8
1979-02-28 09:07:36.540 ,4,0,,0,0.,4.8,0.,4.8,,0,0.,4.8,0.,4.8
1979-02-28 09:07:41.340 ,4,0,,0,0.,4.8,0.,4.8,,0,0.,4.8,0.,4.8
1979-02-28 09:07:46.140 ,4,0,,0,0.,4.8,0.,4.8,,0,0.,4.8,0.,4.8
1979-02-28 09:07:50.940 ,3,0,,0,0.,4.8,0.,4.8,,0,0.,4.8,0.,4.8
1979-02-28 09:07:55.740 ,3,0,,0,0.,4.8,0.,4.8,,0,0.,4.8,0.,4.8
1979-02-28 09:08:00.540 ,3,0,,0,0.,4.8,0.,4.8,,0,0.,4.8,0.,4.8
1979-02-28 09:08:05.340 ,3,0,,0,0.,4.8,0.,4.8,,0,0.,4.8,0.,4.8
1979-02-28 09:08:10.140 ,3,0,,0,0.,4.8,0.,4.8,,0,0.,4.8,0.,4.8
1979-02-28 09:08:14.940 ,2,0,,0,0.,4.8,0.,4.8,,0,0.,4.8,0.,4.8
1979-02-28 09:08:19.740 ,2,0,,0,0.,4.8,0.,4.8,,0,0.,4.8,0.,4.8
1979-02-28 09:08:24.540 ,2,0,,0,0.,4.8,0.,4.8,,0,0.,4.8,0.,4.8
1979-02-28 09:08:29.340 ,2,0,,0,0.,4.8,0.,4.8,,0,0.,4.8,0.,4.8
1979-02-28 09:08:34.140 ,2,0,,0,0.,4.8,0.,4.8,,0,0.,4.8,0.,4.8
1979-02-28 09:08:38.940 ,1,0,,0,0.,4.8,0.,4.8,,0,0.,4.8,0.,4.8
1979-02-28 09:08:43.740 ,1,0,,0,0.,4.8,0.,4.8,,0,0.,4.8,0.,4.8
1979-02-28 09:08:48.540 ,1,0,,0,0.,4.8,0.,4.8,,0,0.,4.8,0.,4.8
1979-02-28 09:08:53.340 ,1,0,,0,0.,4.8,0.,4.8,,0,0.,4.8,0.,4.8
1979-02-28 09:08:58.140 ,1,0,,0,0.,4.8,0.,4.8,,0,0.,4.8,0.,4.8
1979-02-28 09:09:02.940 ,0,0,,0,0.,4.8,0.,4.8,,0,0.,4.8,0.,4.8
1979-02-28 09:09:07.740 ,0,0,,0,0.,4.8,0.,4.8,,0,0.,4.8,0.,4.8
1979-02-28 09:09:12.540 ,0,0,,0,0.,4.8,0.,4.8,,0,0.,4.8,0.,4.8
1979-02-28 09:09:17.340 ,0,0,,0,0.,4.8,0.,4.8,,0,0.,4.8,0.,4.8
1979-02-28 09:09:22.140 ,0,0,,0,0.,4.8,0.,4.8,,0,0.,4.8,0.,4.8
1979-02-28 09:09:26.940 ,0,0,,0,0.,4.8,0.,4.8,,0,0.,4.8,0.,4.8
1979-02-28 09:09:31.740 ,0,0,,0,0.,4.8,0.,4.8,,0,0.,4.8,0.,4.8
1979-02-28 09:09:36.540 ,0,0,,0,0.,4.8,0.,4.8,,0,0.,4.8,0.,4.8
1979-02-28 09:09:41.340 ,0,0,,0,0.,4.8,0.,4.8,,0,0.,4.8,0.,4.8
1979-02-28 09:09:46.140 ,0,0,,0,0.,4.8,0.,4.8,,0,0.,4.8,0.,4.8
1979-02-28 09:09:50.940 ,1,0,,0,0.,4.8,0.,4.8,,0,0.,4.8,0.,4.8
1979-02-28 09:09:55.740 ,1,0,,0,0.,4.8,0.,4.8,,0,0.,4.8,0.,4.8
1979-02-28 09:10:00.540 ,1,0,,0,0.,4.8,0.,4.8,,0,0.,4.8,0.,4.8
1979-02-28 09:10:05.340 ,1,0,,0,0.,4.8,0.,4.8,,0,0.,4.8,0.,4.8
1979-02-28 09:10:10.140 ,1,0,,0,0.,4.8,0.,4.8,,0,0.,4.8,1.,4.8
1979-02-28 09:10:14.940 ,2,0,,0,0.,4.8,0.,4.8,,0,0.,4.8,0.,4.8
1979-02-28 09:10:19.740 ,2,0,,0,0.,4.8,0.,4.8,,0,0.,4.8,0.,4.8
1979-02-28 09:10:24.540 ,2,0,,0,0.,4.8,0.,4.8,,0,0.,4.8,0.,4.8
1979-02-28 09:10:29.340 ,2,0,,0,0.,4.8,0.,4.8,,0,0.,4.8,0.,4.8
1979-02-28 09:10:34.140 ,2,0,,0,0.,4.8,0.,4.8,,0,0.,4.8,0.,4.8
1979-02-28 09:10:38.940 ,3,0,,0,0.,4.8,0.,4.8,,0,0.,4.8,0.,4.8
1979-02-28 09:10:43.740 ,3,0,,0,0.,4.8,0.,4.8,,0,0.,4.8,0.,4.8
1979-02-28 09:10:48.540 ,3,0,,0,0.,4.8,0.,4.8,,0,0.,4.8,0.,4.8
1979-02-28 09:10:53.340 ,3,0,,0,0.,4.8,0.,4.8,,0,0.,4.8,0.,4.8
1979-02-28 09:10:58.140 ,3,0,,0,0.,4.8,0.,4.8,,0,0.,4.8,0.,4.8
1979-02-28 09:11:02.940 ,4,0,,0,0.,4.8,0.,4.8,,0,0.,4.8,0.,4.8
1979-02-28 09:11:07.740 ,4,0,,0,0.,4.8,0.,4.8,,0,0.,4.8,0.,4.8
1979-02-28 09:11:12.540 ,4,0,,0,0.,4.8,0.,4.8,,0,0.,4.8,0.,4.8
1979-02-28 09:11:17.340 ,4,0,,0,0.,4.8,0.,4.8,,0,0.,4.8,0.,4.8
1979-02-28 09:11:22.140 ,4,0,,0,0.,4.8,0.,4.8,,0,0.,4.8,0.,4.8
1979-02-28 09:11:26.940 ,5,0,,0,0.,4.8,0.,4.8,,0,0.,4.8,0.,4.8
1979-02-28 09:11:31.740 ,5,0,,0,0.,4.8,0.,4.8,,0,0.,4.8,0.,4.8
1979-02-28 09:11:36.540 ,5,0,,0,0.,4.8,0.,4.8,,0,0.,4.8,0.,4.8
1979-02-28 09:11:41.340 ,5,0,,0,0.,4.8,0.,4.8,,0,0.,4.8,0.,4.8
1979-02-28 09:11:46.140 ,5,0,,0,0.,4.8,0.,4.8,,0,0.,4.8,0.,4.8
1979-02-28 09:11:50.940 ,6,0,,0,0.,4.8,0.,4.8,,0,0.,4.8,0.,4.8
1979-02-28 09:11:55.740 ,6,0,,0,0.,4.8,0.,4.8,,0,0.,4.8,0.,4.8
1979-02-28 09:12:00.540 ,6,0,,0,0.,4.8,0.,4.8,,0,0.,4.8,0.,4.8
1979-02-28 09:12:05.340 ,6,0,,0,0.,4.8,0.,4.8,,0,0.,4.8,0.,4.8
1979-02-28 09:12:10.140 ,6,0,,0,0.,4.8,0.,4.8,,0,0.,4.8,0.,4.8
1979-02-28 09:12:14.940 ,7,0,,0,0.,4.8,0.,4.8,,0,0.,4.8,0.,4.8
1979-02-28 09:12:19.740 ,7,0,,0,0.,4.8,0.,4.8,,0,0.,4.8,0.,4.8
1979-02-28 09:12:24.540 ,7,0,,0,0.,4.8,0.,4.8,,0,1.,4.8,0.,4.8
1979-02-28 09:12:29.340 ,7,0,,0,0.,4.8,0.,4.8,,0,0.,4.8,0.,4.8
1979-02-28 09:12:34.140 ,7,0,,0,0.,4.8,0.,4.8,,0,0.,4.8,0.,4.8
1979-02-28 09:12:38.940 ,7,0,,0,0.,4.8,0.,4.8,,0,0.,4.8,0.,4.8
1979-02-28 09:12:43.740 ,7,0,,0,0.,4.8,0.,4.8,,0,0.,4.8,0.,4.8
1979-02-28 09:12:48.540 ,7,0,,0,0.,4.8,0.,4.8,,0,0.,4.8,0.,4.8
1979-02-28 09:12:53.340 ,7,0,,0,0.,4.8,0.,4.8,,0,0.,4.8,0.,4.8
1979-02-28 09:12:58.140 ,7,0,,0,0.,4.8,1.,4.8,,0,0.,4.8,0.,4.8
1979-02-28 09:13:02.940 ,6,0,,0,0.,4.8,0.,4.8,,0,0.,4.8,0.,4.8
1979-02-28 09:13:07.740 ,6,0,,0,0.,4.8,0.,4.8,,0,0.,4.8,0.,4.8
1979-02-28 09:13:12.540 ,6,0,,0,0.,4.8,0.,4.8,,0,0.,4.8,0.,4.8
1979-02-28 09:13:17.340 ,6,0,,0,0.,4.8,0.,4.8,,0,0.,4.8,0.,4.8
1979-02-28 09:13:22.140 ,6,0,,0,0.,4.8,0.,4.8,,0,0.,4.8,0.,4.8
1979-02-28 09:13:26.940 ,5,0,,0,0.,4.8,0.,4.8,,0,0.,4.8,0.,4.8
1979-02-28 09:13:31.740 ,5,0,,0,0.,4.8,0.,4.8,,0,0.,4.8,0.,4.8
1979-02-28 09:13:36.540 ,5,0,,0,0.,4.8,0.,4.8,,0,0.,4.8,0.,4.8
1979-02-28 09:13:41.340 ,5,0,,0,0.,4.8,0.,4.8,,0,0.,4.8,0.,4.8
1979-02-28 09:13:46.140 ,5,0,,0,0.,4.8,0.,4.8,,0,0.,4.8,0.,4.8
1979-02-28 09:13:50.940 ,4,0,,0,0.,4.8,0.,4.8,,0,0.,4.8,0.,4.8
1979-02-28 09:13:55.740 ,4,0,,0,0.,4.8,0.,4.8,,0,0.,4.8,0.,4.8
1979-02-28 09:14:00.540 ,4,0,,0,0.,4.8,0.,4.8,,0,0.,4.8,0.,4.8
1979-02-28 09:14:05.340 ,4,0,,0,0.,4.8,0.,4.8,,0,0.,4.8,0.,4.8
1979-02-28 09:14:10.140 ,4,0,,0,0.,4.8,0.,4.8,,0,0.,4.8,0.,4.8
1979-02-28 09:14:14.940 ,3,0,,0,0.,4.8,0.,4.8,,0,0.,4.8,0.,4.8
1979-02-28 09:14:19.740 ,3,0,,0,0.,4.8,0.,4.8,,0,0.,4.8,0.,4.8
1979-02-28 09:14:24.540 ,3,0,,0,0.,4.8,1.,4.8,,0,0.,4.8,0.,4.8
1979-02-28 09:14:29.340 ,3,0,,0,0.,4.8,0.,4.8,,0,0.,4.8,0.,4.8
1979-02-28 09:14:34.140 ,3,0,,0,0.,4.8,0.,4.8,,0,0.,4.8,0.,4.8
1979-02-28 09:14:38.940 ,2,0,,0,0.,4.8,0.,4.8,,0,0.,4.8,0.,4.8
1979-02-28 09:14:43.740 ,2,0,,0,0.,4.8,0.,4.8,,0,0.,4.8,0.,4.8
1979-02-28 09:14:48.540 ,2,0,,0,0.,4.8,0.,4.8,,0,0.,4.8,0.,4.8
1979-02-28 09:14:53.340 ,2,0,,0,0.,4.8,0.,4.8,,0,0.,4.8,0.,4.8
1979-02-28 09:14:58.140 ,2,0,,0,0.,4.8,0.,4.8,,0,0.,4.8,0.,4.8
1979-02-28 09:15:02.940 ,1,0,,0,0.,4.8,0.,4.8,,0,0.,4.8,0.,4.8
1979-02-28 09:15:07.740 ,1,0,,0,0.,4.8,0.,4.8,,0,0.,4.8,0.,4.8
1979-02-28 09:15:12.540 ,1,0,,0,0.,4.8,0.,4.8,,0,0.,4.8,0.,4.8
1979-02-28 09:15:17.340 ,1,0,,0,0.,4.8,0.,4.8,,0,0.,4.8,0.,4.8
1979-02-28 09:15:22.140 ,1,0,,0,0.,4.8,0.,4.8,,0,0.,4.8,0.,4.8
1979-02-28 09:15:26.940 ,0,0,,0,0.,4.8,0.,4.8,,0,0.,4.8,0.,4.8
1979-02-28 09:15:31.740 ,0,0,,0,0.,4.8,0.,4.8,,0,0.,4.8,0.,4.8
1979-02-28 09:15:36.540 ,0,0,,0,0.,4.8,0.,4.8,,0,0.,4.8,0.,4.8
1979-02-28 09:15:41.340 ,0,0,,0,0.,4.8,0.,4.8,,0,0.,4.8,0.,4.8
1979-02-28 09:15:46.140 ,0,0,,0,0.,4.8,0.,4.8,,0,0.,4.8,0.,4.8
1979-02-28 09:15:50.940 ,0,0,,0,0.,4.8,0.,4.8,,0,0.,4.8,0.,4.8
1979-02-28 09:15:55.740 ,0,0,,0,0.,4.8,0.,4.8,,0,0.,4.8,0.,4.8
1979-02-28 09:16:00.540 ,0,0,,0,0.,4.8,0.,4.8,,0,0.,4.8,0.,4.8
1979-02-28 09:16:05.340 ,0,0,,0,0.,4.8,0.,4.8,,0,0.,4.8,0.,4.8
1979-02-28 09:16:10.140 ,0,0,,0,0.,4.8,0.,4.8,,0,1.,4.8,0.,4.8
1979-02-28 09:16:14.940 ,1,0,,0,0.,4.8,0.,4.8,,0,0.,4.8,0.,4.8
1979-02-28 09:16:19.740 ,1,0,,0,0.,4.8,0.,4.8,,0,1.,4.8,0.,4.8
1979-02-28 09:16:24.540 ,1,0,,0,0.,4.8,0.,4.8,,0,0.,4.8,0.,4.8
1979-02-28 09:16:29.340 ,1,0,,0,0.,4.8,0.,4.8,,0,1.,4.8,0.,4.8
1979-02-28 09:16:34.140 ,1,0,,0,0.,4.8,0.,4.8,,0,0.,4.8,0.,4.8
1979-02-28 09:16:38.940 ,2,0,,0,0.,4.8,0.,4.8,,0,0.,4.8,0.,4.8
1979-02-28 09:16:43.740 ,2,0,,0,0.,4.8,0.,4.8,,0,0.,4.8,0.,4.8
1979-02-28 09:16:48.540 ,2,0,,0,0.,4.8,1.,4.8,,0,0.,4.8,0.,4.8
1979-02-28 09:16:53.340 ,2,0,,0,0.,4.8,0.,4.8,,0,0.,4.8,0.,4.8
1979-02-28 09:16:58.140 ,2,0,,0,0.,4.8,0.,4.8,,0,0.,4.8,0.,4.8
1979-02-28 09:17:02.940 ,3,0,,0,0.,4.8,0.,4.8,,0,0.,4.8,0.,4.8
1979-02-28 09:17:07.740 ,3,0,,0,0.,4.8,0.,4.8,,0,0.,4.8,0.,4.8
1979-02-28 09:17:12.540 ,3,0,,0,0.,4.8,0.,4.8,,0,0.,4.8,0.,4.8
1979-02-28 09:17:17.340 ,3,0,,0,0.,4.8,0.,4.8,,0,0.,4.8,0.,4.8
1979-02-28 09:17:22.140 ,3,0,,0,0.,4.8,0.,4.8,,0,0.,4.8,0.,4.8
1979-02-28 09:17:26.940 ,4,0,,0,0.,4.8,0.,4.8,,0,0.,4.8,0.,4.8
1979-02-28 09:17:31.740 ,4,0,,0,0.,4.8,0.,4.8,,0,0.,4.8,0.,4.8
1979-02-28 09:17:36.540 ,4,0,,0,0.,4.8,0.,4.8,,0,0.,4.8,0.,4.8
1979-02-28 09:17:41.340 ,4,0,,0,0.,4.8,0.,4.8,,0,0.,4.8,0.,4.8
1979-02-28 09:17:46.140 ,4,0,,0,1.,4.8,1.,4.8,,0,0.,4.8,0.,4.8
1979-02-28 09:17:50.940 ,5,0,,0,0.,4.8,1.,4.8,,0,0.,4.8,0.,4.8
1979-02-28 09:17:55.740 ,5,0,,0,0.,4.8,0.,4.8,,0,0.,4.8,0.,4.8
1979-02-28 09:18:00.540 ,5,0,,0,0.,4.8,0.,4.8,,0,0.,4.8,0.,4.8
1979-02-28 09:18:05.340 ,5,0,,0,0.,4.8,0.,4.8,,0,0.,4.8,0.,4.8
1979-02-28 09:18:10.140 ,5,0,,0,0.,4.8,0.,4.8,,0,0.,4.8,0.,4.8
1979-02-28 09:18:14.940 ,6,0,,0,0.,4.8,0.,4.8,,0,0.,4.8,0.,4.8
1979-02-28 09:18:19.740 ,6,0,,0,0.,4.8,0.,4.8,,0,0.,4.8,0.,4.8
1979-02-28 09:18:24.540 ,6,0,,0,0.,4.8,0.,4.8,,0,0.,4.8,0.,4.8
1979-02-28 09:18:29.340 ,6,0,,0,0.,4.8,0.,4.8,,0,0.,4.8,0.,4.8
1979-02-28 09:18:34.140 ,6,0,,0,0.,4.8,0.,4.8,,0,0.,4.8,0.,4.8
1979-02-28 09:18:38.940 ,7,0,,0,0.,4.8,0.,4.8,,0,1.,4.8,0.,4.8
1979-02-28 09:18:43.740 ,7,0,,0,0.,4.8,1.,4.8,,0,1.,4.8,0.,4.8
1979-02-28 09:18:48.540 ,7,0,,0,0.,4.8,0.,4.8,,0,0.,4.8,0.,4.8
1979-02-28 09:18:53.340 ,7,0,,0,0.,4.8,0.,4.8,,0,0.,4.8,0.,4.8
1979-02-28 09:18:58.140 ,7,0,,0,0.,4.8,0.,4.8,,0,0.,4.8,0.,4.8
1979-02-28 09:19:02.940 ,7,0,,0,0.,4.8,0.,4.8,,0,0.,4.8,0.,4.8
1979-02-28 09:19:07.740 ,7,0,,0,0.,4.8,0.,4.8,,0,0.,4.8,0.,4.8
1979-02-28 09:19:12.540 ,7,0,,0,0.,4.8,0.,4.8,,0,0.,4.8,0.,4.8
1979-02-28 09:19:17.340 ,7,0,,0,0.,4.8,0.,4.8,,0,0.,4.8,0.,4.8
1979-02-28 09:19:22.140 ,7,0,,0,0.,4.8,0.,4.8,,0,0.,4.8,0.,4.8
1979-02-28 09:19:26.940 ,6,0,,0,0.,4.8,0.,4.8,,0,0.,4.8,0.,4.8
1979-02-28 09:19:31.740 ,6,0,,0,0.,4.8,0.,4.8,,0,0.,4.8,0.,4.8
1979-02-28 09:19:36.540 ,6,0,,0,0.,4.8,0.,4.8,,0,0.,4.8,0.,4.8
1979-02-28 09:19:41.340 ,6,0,,0,0.,4.8,0.,4.8,,0,0.,4.8,0.,4.8
1979-02-28 09:19:46.140 ,6,0,,0,0.,4.8,0.,4.8,,0,0.,4.8,0.,4.8
1979-02-28 09:19:50.940 ,5,0,,0,0.,4.8,0.,4.8,,0,0.,4.8,0.,4.8
1979-02-28 09:19:55.740 ,5,0,,0,0.,4.8,0.,4.8,,0,0.,4.8,0.,4.8
1979-02-28 09:20:00.540 ,5,0,,0,0.,4.8,0.,4.8,,0,0.,4.8,0.,4.8
1979-02-28 09:20:05.340 ,5,0,,0,0.,4.8,0.,4.8,,0,0.,4.8,0.,4.8
1979-02-28 09:20:10.140 ,5,0,,0,0.,4.8,0.,4.8,,0,0.,4.8,0.,4.8
1979-02-28 09:20:14.940 ,4,0,,0,0.,4.8,0.,4.8,,0,0.,4.8,0.,4.8
1979-02-28 09:20:19.740 ,4,0,,0,0.,4.8,0.,4.8,,0,0.,4.8,0.,4.8
1979-02-28 09:20:24.540 ,4,0,,0,0.,4.8,0.,4.8,,0,0.,4.8,0.,4.8
1979-02-28 09:20:29.340 ,4,0,,0,0.,4.8,0.,4.8,,0,0.,4.8,0.,4.8
1979-02-28 09:20:34.140 ,4,0,,0,0.,4.8,0.,4.8,,0,0.,4.8,0.,4.8
1979-02-28 09:20:38.940 ,3,0,,0,0.,4.8,0.,4.8,,0,0.,4.8,0.,4.8
1979-02-28 09:20:43.740 ,3,0,,0,0.,4.8,0.,4.8,,0,0.,4.8,0.,4.8
1979-02-28 09:20:48.540 ,3,0,,0,0.,4.8,0.,4.8,,0,0.,4.8,0.,4.8
1979-02-28 09:20:53.340 ,3,0,,0,0.,4.8,0.,4.8,,0,0.,4.8,0.,4.8
1979-02-28 09:20:58.140 ,3,0,,0,0.,4.8,0.,4.8,,0,0.,4.8,0.,4.8
1979-02-28 09:21:02.940 ,2,0,,0,0.,4.8,0.,4.8,,0,0.,4.8,0.,4.8
1979-02-28 09:21:07.740 ,2,0,,0,0.,4.8,0.,4.8,,0,0.,4.8,0.,4.8
1979-02-28 09:21:12.540 ,2,0,,0,0.,4.8,0.,4.8,,0,0.,4.8,0.,4.8
1979-02-28 09:21:17.340 ,2,0,,0,0.,4.8,0.,4.8,,0,0.,4.8,0.,4.8
1979-02-28 09:21:22.140 ,2,0,,0,0.,4.8,0.,4.8,,0,0.,4.8,0.,4.8
1979-02-28 09:21:26.940 ,1,0,,0,0.,4.8,0.,4.8,,0,0.,4.8,0.,4.8
1979-02-28 09:21:31.740 ,1,0,,0,0.,4.8,0.,4.8,,0,0.,4.8,0.,4.8
1979-02-28 09:21:36.540 ,1,0,,0,0.,4.8,0.,4.8,,0,0.,4.8,0.,4.8
1979-02-28 09:21:41.340 ,1,0,,0,0.,4.8,0.,4.8,,0,0.,4.8,0.,4.8
1979-02-28 09:21:46.140 ,1,0,,0,0.,4.8,0.,4.8,,0,0.,4.8,0.,4.8
1979-02-28 09:21:50.940 ,0,0,,0,0.,4.8,0.,4.8,,0,1.,4.8,0.,4.8
1979-02-28 09:21:55.740 ,0,0,,0,0.,4.8,0.,4.8,,0,0.,4.8,0.,4.8
1979-02-28 09:22:00.540 ,0,0,,0,0.,4.8,0.,4.8,,0,0.,4.8,0.,4.8
1979-02-28 09:22:05.340 ,0,0,,0,0.,4.8,0.,4.8,,0,0.,4.8,0.,4.8
1979-02-28 09:22:10.140 ,0,0,,0,0.,4.8,0.,4.8,,0,0.,4.8,0.,4.8
1979-02-28 09:22:14.940 ,0,0,,0,0.,4.8,0.,4.8,,0,0.,4.8,0.,4.8
1979-02-28 09:22:19.740 ,0,0,,0,0.,4.8,0.,4.8,,0,0.,4.8,0.,4.8
1979-02-28 09:22:24.540 ,0,0,,0,0.,4.8,0.,4.8,,0,0.,4.8,0.,4.8
1979-02-28 09:22:29.340 ,0,0,,0,0.,4.8,0.,4.8,,0,0.,4.8,0.,4.8
1979-02-28 09:22:34.140 ,0,0,,0,0.,4.8,0.,4.8,,0,0.,4.8,0.,4.8
1979-02-28 09:22:38.940 ,1,0,,0,0.,4.8,0.,4.8,,0,0.,4.8,0.,4.8
1979-02-28 09:22:43.740 ,1,0,,0,0.,4.8,0.,4.8,,0,0.,4.8,0.,4.8
1979-02-28 09:22:48.540 ,1,0,,0,0.,4.8,0.,4.8,,0,0.,4.8,0.,4.8
1979-02-28 09:22:53.340 ,1,0,,0,0.,4.8,0.,4.8,,0,0.,4.8,0.,4.8
1979-02-28 09:22:58.140 ,1,0,,0,0.,4.8,0.,4.8,,0,0.,4.8,0.,4.8
1979-02-28 09:23:02.940 ,2,0,,0,0.,4.8,0.,4.8,,0,0.,4.8,0.,4.8
1979-02-28 09:23:07.740 ,2,0,,0,0.,4.8,0.,4.8,,0,0.,4.8,0.,4.8
1979-02-28 09:23:12.540 ,2,0,,0,0.,4.8,0.,4.8,,0,0.,4.8,0.,4.8
1979-02-28 09:23:17.340 ,2,0,,0,0.,4.8,0.,4.8,,0,0.,4.8,0.,4.8
1979-02-28 09:23:22.140 ,2,0,,0,0.,4.8,0.,4.8,,0,0.,4.8,0.,4.8
1979-02-28 09:23:26.940 ,3,0,,0,0.,4.8,0.,4.8,,0,0.,4.8,0.,4.8
1979-02-28 09:23:31.740 ,3,0,,0,0.,4.8,0.,4.8,,0,0.,4.8,0.,4.8
1979-02-28 09:23:36.540 ,3,0,,0,0.,4.8,0.,4.8,,0,1.,4.8,0.,4.8
1979-02-28 09:23:41.340 ,3,0,,0,0.,4.8,0.,4.8,,0,0.,4.8,0.,4.8
1979-02-28 09:23:46.140 ,3,0,,0,0.,4.8,0.,4.8,,0,0.,4.8,0.,4.8
1979-02-28 09:23:50.940 ,4,0,,0,0.,4.8,0.,4.8,,0,0.,4.8,0.,4.8
1979-02-28 09:23:55.740 ,4,0,,0,0.,4.8,0.,4.8,,0,0.,4.8,0.,4.8
1979-02-28 09:24:00.540 ,4,0,,0,0.,4.8,0.,4.8,,0,0.,4.8,0.,4.8
1979-02-28 09:24:05.340 ,4,0,,0,0.,4.8,0.,4.8,,0,1.,4.8,0.,4.8
1979-02-28 09:24:10.140 ,4,0,,0,0.,4.8,0.,4.8,,0,0.,4.8,0.,4.8
1979-02-28 09:24:14.940 ,5,0,,0,0.,4.8,0.,4.8,,0,0.,4.8,0.,4.8
1979-02-28 09:24:19.740 ,5,0,,0,0.,4.8,0.,4.8,,0,0.,4.8,0.,4.8
1979-02-28 09:24:24.540 ,5,0,,0,0.,4.8,0.,4.8,,0,0.,4.8,0.,4.8
1979-02-28 09:24:29.340 ,5,0,,0,0.,4.8,0.,4.8,,0,0.,4.8,0.,4.8
1979-02-28 09:24:34.140 ,5,0,,0,0.,4.8,0.,4.8,,0,0.,4.8,0.,4.8
1979-02-28 09:24:38.940 ,6,0,,0,0.,4.8,0.,4.8,,0,0.,4.8,0.,4.8
1979-02-28 09:24:43.740 ,6,0,,0,0.,4.8,0.,4.8,,0,0.,4.8,0.,4.8
1979-02-28 09:24:48.540 ,6,0,,0,0.,4.8,0.,4.8,,0,0.,4.8,0.,4.8
1979-02-28 09:24:53.340 ,6,0,,0,0.,4.8,0.,4.8,,0,0.,4.8,0.,4.8
1979-02-28 09:24:58.140 ,6,0,,0,0.,4.8,0.,4.8,,0,0.,4.8,0.,4.8
1979-02-28 09:25:02.940 ,7,0,,0,0.,4.8,0.,4.8,,0,0.,4.8,0.,4.8
1979-02-28 09:25:07.740 ,7,0,,0,0.,4.8,0.,4.8,,0,0.,4.8,0.,4.8
1979-02-28 09:25:12.540 ,7,0,,0,0.,4.8,0.,4.8,,0,0.,4.8,0.,4.8
1979-02-28 09:25:17.340 ,7,0,,0,0.,4.8,0.,4.8,,0,0.,4.8,0.,4.8
1979-02-28 09:25:22.140 ,7,0,,0,0.,4.8,0.,4.8,,0,1.,4.8,0.,4.8
1979-02-28 09:25:26.940 ,7,0,,0,0.,4.8,0.,4.8,,0,0.,4.8,0.,4.8
1979-02-28 09:25:31.740 ,7,0,,0,0.,4.8,0.,4.8,,0,0.,4.8,0.,4.8
1979-02-28 09:25:36.540 ,7,0,,0,0.,4.8,0.,4.8,,0,0.,4.8,0.,4.8
1979-02-28 09:25:41.340 ,7,0,,0,0.,4.8,0.,4.8,,0,0.,4.8,0.,4.8
1979-02-28 09:25:46.140 ,7,0,,0,0.,4.8,0.,4.8,,0,0.,4.8,0.,4.8
1979-02-28 09:25:50.940 ,6,0,,0,0.,4.8,0.,4.8,,0,0.,4.8,0.,4.8
1979-02-28 09:25:55.740 ,6,0,,0,0.,4.8,0.,4.8,,0,0.,4.8,0.,4.8
1979-02-28 09:26:00.540 ,6,0,,0,0.,4.8,0.,4.8,,0,0.,4.8,0.,4.8
1979-02-28 09:26:05.340 ,6,0,,0,0.,4.8,0.,4.8,,0,0.,4.8,0.,4.8
1979-02-28 09:26:10.140 ,6,0,,0,0.,4.8,0.,4.8,,0,1.,4.8,0.,4.8
1979-02-28 09:26:14.940 ,5,0,,0,0.,4.8,0.,4.8,,0,0.,4.8,0.,4.8
1979-02-28 09:26:19.740 ,5,0,,0,0.,4.8,0.,4.8,,0,0.,4.8,0.,4.8
1979-02-28 09:26:24.540 ,5,0,,0,0.,4.8,0.,4.8,,0,0.,4.8,0.,4.8
1979-02-28 09:26:29.340 ,5,0,,0,0.,4.8,0.,4.8,,0,0.,4.8,0.,4.8
1979-02-28 09:26:34.140 ,5,0,,0,0.,4.8,0.,4.8,,0,0.,4.8,0.,4.8
1979-02-28 09:26:38.940 ,4,0,,0,0.,4.8,0.,4.8,,0,0.,4.8,0.,4.8
1979-02-28 09:26:43.740 ,4,0,,0,0.,4.8,0.,4.8,,0,0.,4.8,0.,4.8
1979-02-28 09:26:48.540 ,4,0,,0,0.,4.8,0.,4.8,,0,0.,4.8,0.,4.8
1979-02-28 09:26:53.340 ,4,0,,0,0.,4.8,0.,4.8,,0,0.,4.8,0.,4.8
1979-02-28 09:26:58.140 ,4,0,,0,0.,4.8,0.,4.8,,0,0.,4.8,0.,4.8
1979-02-28 09:27:02.940 ,3,0,,0,0.,4.8,0.,4.8,,0,1.,4.8,0.,4.8
1979-02-28 09:27:07.740 ,3,0,,0,0.,4.8,0.,4.8,,0,0.,4.8,0.,4.8
1979-02-28 09:27:12.540 ,3,0,,0,0.,4.8,0.,4.8,,0,0.,4.8,0.,4.8
1979-02-28 09:27:17.340 ,3,0,,0,0.,4.8,1.,4.8,,0,0.,4.8,0.,4.8
1979-02-28 09:27:22.140 ,3,0,,0,0.,4.8,0.,4.8,,0,0.,4.8,0.,4.8
1979-02-28 09:27:26.940 ,2,0,,0,0.,4.8,0.,4.8,,0,0.,4.8,0.,4.8
1979-02-28 09:27:31.740 ,2,0,,0,0.,4.8,0.,4.8,,0,0.,4.8,0.,4.8
1979-02-28 09:27:36.540 ,2,0,,0,0.,4.8,0.,4.8,,0,0.,4.8,0.,4.8
1979-02-28 09:27:41.340 ,2,0,,0,0.,4.8,1.,4.8,,0,0.,4.8,0.,4.8
1979-02-28 09:27:46.140 ,2,0,,0,0.,4.8,0.,4.8,,0,0.,4.8,0.,4.8
1979-02-28 09:27:50.940 ,1,0,,0,0.,4.8,0.,4.8,,0,0.,4.8,0.,4.8
1979-02-28 09:27:55.740 ,1,0,,0,0.,4.8,0.,4.8,,0,0.,4.8,0.,4.8
1979-02-28 09:28:00.540 ,1,0,,0,0.,4.8,0.,4.8,,0,0.,4.8,0.,4.8
1979-02-28 09:28:05.340 ,1,0,,0,0.,4.8,0.,4.8,,0,0.,4.8,0.,4.8
1979-02-28 09:28:10.140 ,1,0,,0,0.,4.8,0.,4.8,,0,0.,4.8,0.,4.8
1979-02-28 09:28:14.940 ,0,0,,0,0.,4.8,0.,4.8,,0,0.,4.8,0.,4.8
1979-02-28 09:28:19.740 ,0,0,,0,0.,4.8,0.,4.8,,0,0.,4.8,0.,4.8
1979-02-28 09:28:24.540 ,0,0,,0,0.,4.8,0.,4.8,,0,0.,4.8,0.,4.8
1979-02-28 09:28:29.340 ,0,0,,0,0.,4.8,0.,4.8,,0,0.,4.8,0.,4.8
1979-02-28 09:28:34.140 ,0,0,,0,0.,4.8,0.,4.8,,0,0.,4.8,0.,4.8
1979-02-28 09:28:38.940 ,0,0,,0,0.,4.8,0.,4.8,,0,0.,4.8,0.,4.8
1979-02-28 09:28:43.740 ,0,0,,0,0.,4.8,0.,4.8,,0,0.,4.8,0.,4.8
1979-02-28 09:28:48.540 ,0,0,,0,0.,4.8,0.,4.8,,0,0.,4.8,0.,4.8
1979-02-28 09:28:53.340 ,0,0,,0,0.,4.8,0.,4.8,,0,0.,4.8,0.,4.8
1979-02-28 09:28:58.140 ,0,0,,0,0.,4.8,0.,4.8,,0,0.,4.8,0.,4.8
1979-02-28 09:29:02.940 ,1,0,,0,0.,4.8,0.,4.8,,0,0.,4.8,0.,4.8
1979-02-28 09:29:07.740 ,1,0,,0,0.,4.8,0.,4.8,,0,0.,4.8,0.,4.8
1979-02-28 09:29:12.540 ,1,0,,0,0.,4.8,0.,4.8,,0,0.,4.8,0.,4.8
1979-02-28 09:29:17.340 ,1,0,,0,0.,4.8,0.,4.8,,0,0.,4.8,0.,4.8
1979-02-28 09:29:22.140 ,1,0,,0,0.,4.8,0.,4.8,,0,0.,4.8,0.,4.8
1979-02-28 09:29:26.940 ,2,0,,0,0.,4.8,0.,4.8,,0,0.,4.8,0.,4.8
1979-02-28 09:29:31.740 ,2,0,,0,0.,4.8,0.,4.8,,0,0.,4.8,0.,4.8
1979-02-28 09:29:36.540 ,2,0,,0,0.,4.8,0.,4.8,,0,0.,4.8,0.,4.8
1979-02-28 09:29:41.340 ,2,0,,0,0.,4.8,0.,4.8,,0,0.,4.8,0.,4.8
1979-02-28 09:29:46.140 ,2,0,,0,0.,4.8,0.,4.8,,0,0.,4.8,0.,4.8
1979-02-28 09:29:50.940 ,3,0,,0,0.,4.8,0.,4.8,,0,0.,4.8,0.,4.8
1979-02-28 09:29:55.740 ,3,0,,0,0.,4.8,0.,4.8,,0,0.,4.8,0.,4.8
1979-02-28 09:30:00.540 ,3,0,,0,0.,4.8,0.,4.8,,0,0.,4.8,0.,4.8